[[{"header":{"parameterUnit":"m.s-1","parameterCategory":1,"la1":30.2992,"la2":30.254,"lo1":-89.0895,"lo2":-89.0443,"dy":0.0025,"dx":0.0025,"nx":19,"ny":19,"refTime":"2026-05-20T09:00:00:Z","depth":0,"parameterNumber":2,"parameterNumberName":"U-component_of_WINDS"},"data":[0,0,0,-2.8371,-2.8371,-2.8351,-2.8351,-2.8346,-2.8346,0,0,0,0,0,0,0,0,0,0,0,-2.8388,-2.8388,-2.8371,-2.8371,-2.8351,-2.8351,-2.8346,-2.8346,0,0,0,0,0,0,0,0,0,0,0,-2.8388,-2.8388,-2.8389,-2.8371,-2.8351,-2.8351,-2.8346,-2.8354,0,0,0,0,0,0,0,0,0,0,-2.8369,-2.8396,-2.8388,-2.8389,-2.8371,-2.8351,-2.8351,-2.8354,-2.8353,-2.8363,0,-2.8376,0,-2.8361,-2.8347,-2.8347,0,0,0,-2.8362,-2.8397,-2.8381,-2.8389,-2.837,-2.8351,-2.8357,-2.8353,-2.8353,-2.8363,-2.8375,-2.8375,-2.8361,-2.8347,-2.8347,-2.8437,-2.8438,0,0,-2.8363,-2.8391,-2.8382,-2.8382,-2.8386,-2.8358,-2.8357,-2.8353,-2.8368,-2.8375,-2.8374,-2.8361,-2.8347,-2.8348,-2.8436,-2.8437,0,0,0,-2.8372,-2.8392,-2.8376,-2.8382,-2.8377,-2.8358,-2.8356,-2.8368,-2.836,-2.8374,-2.8361,-2.8348,-2.8348,-2.8435,-2.8436,-2.8504,0,0,0,-2.8372,-2.8397,-2.8377,-2.8394,-2.8378,-2.8372,-2.8372,-2.8361,-2.8359,-2.8361,-2.8348,-2.8348,-2.8434,-2.8436,-2.85,-2.853,0,0,0,-2.8385,-2.8398,-2.84,-2.8395,-2.8388,-2.8372,-2.8364,-2.836,-2.8352,-2.8347,-2.8348,-2.8433,-2.8436,-2.8497,-2.8525,-2.8561,0,0,0,-2.8407,-2.846,-2.8401,-2.8455,-2.8389,-2.8415,-2.8363,-2.8381,-2.8386,-2.8348,-2.8434,-2.8436,-2.8496,-2.8521,-2.8558,-2.8596,-2.8615,0,0,-2.8489,-2.8471,-2.85,-2.8447,-2.8491,-2.8415,-2.8469,-2.8446,-2.842,-2.8433,-2.8435,-2.8501,-2.8524,-2.8561,-2.8716,-2.8731,0,0,0,-2.8536,-2.8557,-2.8563,-2.8568,-2.8553,-2.8543,-2.8509,-2.8501,-2.8511,-2.8432,-2.8525,-2.8538,-2.8558,-2.8575,-2.8588,-2.8603,-2.8446,-2.8446,-2.8446,-2.8689,-2.8654,-2.8701,-2.8664,-2.8671,-2.8637,-2.864,-2.8623,-2.8585,-2.8608,-2.861,-2.8709,-2.873,-2.8739,-2.8755,-2.863,-2.863,-2.863,-2.863,-2.8804,-2.8828,-2.8779,-2.8806,-2.877,-2.8792,-2.8763,-2.8736,-2.8752,-2.8704,-2.872,-2.8667,-2.8757,-2.8769,-2.8635,-2.8634,-2.8634,-2.8633,-2.8633,-2.8898,-2.8903,-2.8894,-2.89,-2.891,-2.8872,-2.889,-2.8856,-2.8825,-2.8841,-2.884,-2.8838,-2.8831,-2.8843,-2.8844,-2.8844,-2.8844,-2.8845,-2.8845,-2.8998,-2.8986,-2.9005,-2.8996,-2.8996,-2.8992,-2.8962,-2.8961,-2.8952,-2.8926,-2.8925,-2.8885,-2.8773,-2.8745,-2.885,-2.8849,-2.8848,-2.8848,-2.8847,-2.9123,-2.909,-2.9119,-2.912,-2.9107,-2.9119,-2.9077,-2.908,-2.9075,-2.9085,-2.9043,-2.8966,-2.8944,-2.8934,-2.8909,-2.9051,-2.9051,-2.9051,-2.9051,-2.92,-2.9188,-2.921,-2.9214,-2.9213,-2.918,-2.9215,-2.9193,-2.9165,-2.916,-2.9136,-2.9102,-2.9093,-2.9076,-2.9063,-2.9039,-2.9211,-2.9211,-2.9211,-2.9274,-2.926,-2.9295,-2.9268,-2.9257,-2.9248,-2.928,-2.9286,-2.9248,-2.9217,-2.9155,-2.9149,-2.9094,-2.9078,-2.9041,-2.9021,-2.8977,0,0]},{"header":{"parameterUnit":"m.s-1","parameterCategory":1,"la1":30.2992,"la2":30.254,"lo1":-89.0895,"lo2":-89.0443,"dy":0.0025,"dx":0.0025,"nx":19,"ny":19,"refTime":"2026-05-20T09:00:00:Z","depth":0,"parameterNumber":3,"parameterNumberName":"V-component_of_WINDS"},"data":[0,0,0,2.6836,2.6836,2.6847,2.6847,2.6845,2.6845,0,0,0,0,0,0,0,0,0,0,0,2.6825,2.6824,2.6836,2.6836,2.6847,2.6847,2.6845,2.6845,0,0,0,0,0,0,0,0,0,0,0,2.6825,2.6824,2.6824,2.6836,2.6847,2.6847,2.6845,2.6842,0,0,0,0,0,0,0,0,0,0,2.6835,2.6815,2.6824,2.6824,2.6836,2.6847,2.6847,2.6842,2.6842,2.6834,0,2.6824,0,2.6834,2.6844,2.6843,0,0,0,2.6842,2.6815,2.6826,2.6824,2.6836,2.6847,2.6844,2.6843,2.6843,2.6833,2.6824,2.6825,2.6834,2.6843,2.6843,2.6776,2.6776,0,0,2.6842,2.6821,2.6826,2.6826,2.6824,2.6844,2.6844,2.6843,2.6831,2.6824,2.6825,2.6834,2.6843,2.6843,2.6777,2.6776,0,0,0,2.6836,2.682,2.6832,2.6825,2.6829,2.6844,2.6844,2.6831,2.6837,2.6825,2.6834,2.6843,2.6843,2.6778,2.6777,2.6729,0,0,0,2.6836,2.6817,2.6831,2.6819,2.6828,2.683,2.6832,2.6837,2.6837,2.6834,2.6843,2.6843,2.6778,2.6777,2.6732,2.6709,0,0,0,2.6827,2.6816,2.6815,2.6818,2.6822,2.6831,2.6836,2.6837,2.6842,2.6843,2.6843,2.6779,2.6777,2.6734,2.6713,2.6687,0,0,0,2.681,2.677,2.6814,2.6773,2.6821,2.6801,2.6837,2.6822,2.6817,2.6843,2.6778,2.6777,2.6735,2.6716,2.6689,2.6661,2.6648,0,0,2.6748,2.6762,2.6739,2.6779,2.6746,2.6801,2.6761,2.6775,2.6792,2.6781,2.6779,2.6731,2.6714,2.6687,2.6577,2.6566,0,0,0,2.6712,2.6696,2.6692,2.6688,2.6699,2.6707,2.673,2.6735,2.6727,2.6783,2.6714,2.6705,2.669,2.6678,2.6668,2.6658,2.677,2.677,2.677,2.6593,2.6621,2.6586,2.6616,2.6611,2.6636,2.6635,2.6647,2.6673,2.6657,2.6654,2.6584,2.6568,2.6562,2.655,2.6641,2.6641,2.664,2.664,2.6505,2.6487,2.6527,2.6508,2.6537,2.6521,2.6544,2.6564,2.6553,2.6588,2.6576,2.6612,2.6549,2.654,2.6637,2.6637,2.6638,2.6638,2.6638,2.643,2.6427,2.6436,2.6435,2.643,2.6461,2.645,2.6476,2.65,2.6489,2.649,2.649,2.6495,2.6488,2.6487,2.6487,2.6487,2.6487,2.6487,2.635,2.6362,2.635,2.6361,2.6363,2.6369,2.6396,2.6398,2.6408,2.6428,2.6428,2.6457,2.6537,2.6558,2.6483,2.6484,2.6484,2.6484,2.6485,2.625,2.6278,2.6259,2.6262,2.6278,2.6273,2.6308,2.6311,2.6317,2.6311,2.6343,2.6398,2.6413,2.6421,2.6438,2.6337,2.6337,2.6337,2.6337,2.6188,2.6199,2.6188,2.6191,2.6196,2.6227,2.6205,2.6226,2.6252,2.6257,2.6276,2.6301,2.6307,2.6319,2.6328,2.6345,2.6222,2.6222,2.6222,2.6129,2.6143,2.612,2.6148,2.6163,2.6176,2.6157,2.6158,2.6192,2.6218,2.6263,2.6268,2.6308,2.6319,2.6344,2.6359,2.6389,0,0]}]]